Location: Bergnershof
(48.9468°N, 10.9431°E)
Time: 03:42:24
(UTC+00:00)

Cosmos 1844 - Pass Details

Date: 03 March 2021
Orbit: 822 x 868 km, 70.9° (Epoch: 16 April)

Event Time Altitude Azimuth Distance (km) Brightness Sun altitude
Rises 18:33:24 0° 331° (NNW) 3,461 7.4 -15.6°
Reaches altitude 10° 18:35:53 10° 331° (NNW) 2,517 6.7 -16.0°
Maximum altitude 18:41:42 90° 125° (SE) 867 3.7 -17.0°
Enters shadow 18:46:58 12° 153° (SSE) 2,306 5.6 -17.8°
